"Pseudo-MPEC" for P10Rs1Y

Created 2019 Sep 12 12:07:19 UT using Find_Orb

Click here for an explanation of pseudo-MPECs

 
 Astrometry: 
     P10Rs1Y  C2019 09 06'MJgV@xQWh;jtN_\%s[)o6xTvyS\Zx*!TJ_['wAstrometryF!K+F51
     P10Rs1Y  C2019 09 067*$0eaU_ZQ^g4?!fI#uNWZ/Yb`Zce?!oCe[redacted;_kjD%v]FF51
     P10Rs1Y  C2019 09 060HPK%KS\`coHI)e5I@^F,?+w0*W`g#JiKn*H@fclicke6hh?SWBNF51
     P10Rs1Y ^C2019 09 07.45821200 55 26.522-17 47 57.43   ~97N7 20.56GVNEOCP568
     P10Rs1Y ^C2019 09 07.46014400 55 26.674-17 48 03.86   ~97N7 20.64GVNEOCP568
     P10Rs1Y ^C2019 09 07.46205200 55 26.821-17 48 10.04   ~97N7 20.61GVNEOCP568
     P10Rs1Y pC2019 09 11CZ5(1y2h_yl/Bq07j9vVX2DF,QX(%thereK9cTKc@mH@9XbeBSA2L01
     P10Rs1Y KC2019 09 11F=B$Pf%6q]rwWD6@R;]rcfor,l/g:b.cHgVhlF_)\:M5nBrA_X3PL01
     P10Rs1Y KC2019 09 11B]j_FJHLexplanationri\`\(e6=c;e`g,EFt;vpygUEkWqdGS$]L01

Station data:
(568) Mauna Kea  (N19.826116 W155.472200)  US/Hawaii.
(F51) Pan-STARRS 1, Haleakala  (N20.707235 W156.255910)  US/Hawaii.
   Observers N. Primak, A. Schultz, S. Watters, J. Thiel, T. Goggia. Measurer
   PS1 Science Consortium. 1.8-m Ritchey-Chrétien + CCD.
(L01) Višnjan Observatory, Tičan  (N45.290900 E13.749300)  Croatia.
   Observers K. Korlević, E. Pettarin. Measurer E. Pettarin. 1.0-m f/2.9
   reflector + CCD.

Orbital elements:  P10Rs1Y
   Perihelion 2019 Nov 16.476004 +/- 0.348 TT = 11:25:26 (JD 2458803.976004)
Epoch 2019 Sep 11.0 TT = JDT 2458737.5   Earth MOID: 0.4908   AutoNEOCP
M 344.15709629 +/- 0.57             (J2000 ecliptic)
n   0.23832515 +/- 0.00743          Peri.  247.89187 +/- 0.43
a   2.57645640 +/- 0.0535           Node   156.50147 +/- 0.13
e   0.4919214 +/- 0.00865           Incl.   27.77847 +/- 0.30
P   4.14                   H 20.4   G  0.15   U  9.4  
q 1.30904229 +/- 0.00492    Q 3.84387051 +/- 0.0995
From 9 observations 2019 Sept. 6-11; mean residual 0".09
Residuals in arcseconds: 
190906 F51  .09-  .10+    190907 568  .01-  .02+    190911 L01  .11+  .07-    
190906 F51  .03+  .07-    190907 568  .01+  .06-    190911 L01  .09-  .24+    
190906 F51  .06+  .03-    190907 568  .00   .04+    190911 L01  .01-  .17-    

Ephemerides (geocentric):
Date (UTC) HH   RA              Dec         delta   r     elong  mag " sig PA
---- -- -- --  -------------   -----------  ------ ------ -----  --- ---- ---
2019 09 12 12  01 02 28.858   -22 31 18.00  .51277 1.4708 149.3 20.8 .662  91
2019 09 12 13  01 02 32.334   -22 33 41.72  .51262 1.4706 149.3 20.8 .684  90
2019 09 12 14  01 02 35.810   -22 36 05.48  .51248 1.4704 149.2 20.8 .707  90
2019 09 12 15  01 02 39.285   -22 38 29.28  .51234 1.4702 149.2 20.8 .731  89
2019 09 12 16  01 02 42.760   -22 40 53.11  .51219 1.4700 149.2 20.8 .754  89
2019 09 12 17  01 02 46.235   -22 43 16.98  .51205 1.4698 149.2 20.8 .778  89
2019 09 12 18  01 02 49.709   -22 45 40.88  .51191 1.4697 149.2 20.8 .802  88
2019 09 12 19  01 02 53.183   -22 48 04.82  .51177 1.4695 149.2 20.8 .827  88
2019 09 12 20  01 02 56.657   -22 50 28.80  .51163 1.4693 149.2 20.8 .851  88
2019 09 12 21  01 03 00.131   -22 52 52.81  .51149 1.4691 149.1 20.8 .876  88
2019 09 12 22  01 03 03.604   -22 55 16.85  .51135 1.4689 149.1 20.8 .901  87
2019 09 12 23  01 03 07.077   -22 57 40.93  .51121 1.4687 149.1 20.8 .927  87
2019 09 13 00  01 03 10.549   -23 00 05.04  .51108 1.4685 149.1 20.8 .953  87
2019 09 13 01  01 03 14.022   -23 02 29.19  .51094 1.4684 149.1 20.8 .979  87
2019 09 13 02  01 03 17.493   -23 04 53.37  .51080 1.4682 149.1 20.8 1.01  86
2019 09 13 03  01 03 20.965   -23 07 17.58  .51067 1.4680 149.0 20.8 1.03  86
2019 09 13 04  01 03 24.436   -23 09 41.82  .51053 1.4678 149.0 20.8 1.06  86
2019 09 13 05  01 03 27.907   -23 12 06.09  .51039 1.4676 149.0 20.8 1.09  86
2019 09 13 06  01 03 31.378   -23 14 30.40  .51026 1.4674 149.0 20.8 1.11  86
2019 09 13 07  01 03 34.848   -23 16 54.74  .51012 1.4672 149.0 20.8 1.14  86
2019 09 13 08  01 03 38.318   -23 19 19.10  .50999 1.4670 149.0 20.8 1.17  85
2019 09 13 09  01 03 41.788   -23 21 43.50  .50986 1.4669 149.0 20.8 1.20  85
2019 09 13 10  01 03 45.258   -23 24 07.93  .50972 1.4667 148.9 20.8 1.23  85
2019 09 13 11  01 03 48.727   -23 26 32.39  .50959 1.4665 148.9 20.8 1.25  85
2019 09 13 12  01 03 52.195   -23 28 56.87  .50946 1.4663 148.9 20.8 1.28  85
2019 09 13 13  01 03 55.664   -23 31 21.39  .50933 1.4661 148.9 20.8 1.31  85
2019 09 13 14  01 03 59.132   -23 33 45.93  .50920 1.4659 148.9 20.8 1.34  85
2019 09 13 15  01 04 02.600   -23 36 10.51  .50907 1.4657 148.9 20.8 1.37  85
2019 09 13 16  01 04 06.067   -23 38 35.11  .50894 1.4656 148.8 20.8 1.40  85
2019 09 13 17  01 04 09.534   -23 40 59.73  .50881 1.4654 148.8 20.8 1.43  84
2019 09 13 18  01 04 13.001   -23 43 24.39  .50868 1.4652 148.8 20.8 1.46  84
2019 09 13 19  01 04 16.468   -23 45 49.07  .50855 1.4650 148.8 20.8 1.49  84
2019 09 13 20  01 04 19.934   -23 48 13.77  .50842 1.4648 148.8 20.8 1.53  84
2019 09 13 21  01 04 23.400   -23 50 38.51  .50829 1.4646 148.8 20.8 1.56  84
2019 09 13 22  01 04 26.865   -23 53 03.26  .50816 1.4644 148.7 20.8 1.59  84
2019 09 13 23  01 04 30.330   -23 55 28.05  .50804 1.4643 148.7 20.8 1.62  84
2019 09 14 00  01 04 33.795   -23 57 52.85  .50791 1.4641 148.7 20.8 1.65  84
2019 09 14 01  01 04 37.260   -24 00 17.68  .50779 1.4639 148.7 20.8 1.69  84
2019 09 14 02  01 04 40.724   -24 02 42.54  .50766 1.4637 148.7 20.8 1.72  84
2019 09 14 03  01 04 44.188   -24 05 07.42  .50754 1.4635 148.6 20.8 1.75  84
2019 09 14 04  01 04 47.651   -24 07 32.32  .50741 1.4633 148.6 20.8 1.79  84
2019 09 14 05  01 04 51.115   -24 09 57.25  .50729 1.4631 148.6 20.8 1.82  84
2019 09 14 06  01 04 54.577   -24 12 22.19  .50716 1.4630 148.6 20.8 1.85  84
2019 09 14 07  01 04 58.040   -24 14 47.16  .50704 1.4628 148.6 20.8 1.89  84
2019 09 14 08  01 05 01.502   -24 17 12.15  .50692 1.4626 148.6 20.8 1.92  84
2019 09 14 09  01 05 04.964   -24 19 37.17  .50680 1.4624 148.5 20.8 1.96  84
2019 09 14 10  01 05 08.426   -24 22 02.20  .50667 1.4622 148.5 20.8 1.99  84
2019 09 14 11  01 05 11.887   -24 24 27.25  .50655 1.4620 148.5 20.8 2.03  83